EW1806 Kalamata GR current weather conditions

sailwx.info

Wind from 159

Air temperature 14.4° C
Dewpoint 2.7° C

Last reported at 2020-Jan-22 15:00 UTC.
Time now 2020-Jan-22 15:36 UTC

Location: N 37°02' E 022°07'.
View on Google Maps.

See reports from other nearby stations

  
Tides and Currents Weather Stations Pressure Air Temp Water Temp Dewpoint Dewpoint Depression Visibility Wind Speed Wind Dir Waves Ship Positions
date/time (UTC)wind fromknots sea level pressurealtimeterstation pressurevisibilityair tempwater tempwave heightnotes
2020-Jan-22 15:00 159 14.4
2020-Jan-22 14:55 159 15.0
2020-Jan-22 14:50 159 15.0
2020-Jan-22 14:45 159 14.4
2020-Jan-22 14:40 159 14.4
2020-Jan-22 14:35 159 14.4
2020-Jan-22 14:30 159 14.4
2020-Jan-22 14:25 157 15.0
2020-Jan-22 14:20 157 15.0
2020-Jan-22 14:15 157 15.0
2020-Jan-22 14:10 158 15.0
2020-Jan-22 14:05 157 15.0
2020-Jan-22 14:00 157 14.4
2020-Jan-22 13:55 157 15.0
2020-Jan-22 13:50 130 15.0
2020-Jan-22 13:45 128 15.6
2020-Jan-22 13:40 128 15.6
2020-Jan-22 13:35 173 15.6
2020-Jan-22 13:30 173 15.6
2020-Jan-22 13:25 173 15.0
2020-Jan-22 13:20 117 15.0
2020-Jan-22 13:15 147 14.4
2020-Jan-22 13:10 167 14.4
2020-Jan-22 13:05 149 15.0
2020-Jan-22 13:00 151 15.0
2020-Jan-22 12:55 177 15.0
2020-Jan-22 12:50 179 14.4
2020-Jan-22 12:45 158 15.0
2020-Jan-22 12:40 157 15.6
2020-Jan-22 12:35 164 15.0
2020-Jan-22 12:30 173 15.0
2020-Jan-22 12:25 171 15.0
2020-Jan-22 12:20 147 15.0
2020-Jan-22 12:15 140 15.6
2020-Jan-22 12:10 140 15.0
2020-Jan-22 12:05 140 15.0
2020-Jan-22 12:00 132 15.0
2020-Jan-22 11:55 146 15.0
2020-Jan-22 11:50 146 14.4
2020-Jan-22 11:45 147 14.4
2020-Jan-22 11:40 145 14.4
2020-Jan-22 11:35 153 14.4
2020-Jan-22 11:30 136 14.4
2020-Jan-22 11:25 168 14.4
2020-Jan-22 11:20 168 13.9
2020-Jan-22 11:15 154 13.9
2020-Jan-22 11:10 169 13.9
2020-Jan-22 11:05 166 15.0
2020-Jan-22 11:00 166 15.0
2020-Jan-22 10:55 166 14.4
2020-Jan-22 10:50 165 14.4
2020-Jan-22 10:45 169 14.4
2020-Jan-22 10:40 169 13.9
2020-Jan-22 10:35 171 13.9
2020-Jan-22 10:30 170 13.9
2020-Jan-22 10:25 172 13.3
2020-Jan-22 10:20 171 13.3
2020-Jan-22 10:15 171 12.8
2020-Jan-22 10:10 164 13.3
2020-Jan-22 10:05 174 13.9
2020-Jan-22 10:00 246 13.9
2020-Jan-22 09:55 246 13.3
2020-Jan-22 09:50 263 13.3
2020-Jan-22 09:45 264 13.9
2020-Jan-22 09:40 264 13.3
2020-Jan-22 09:35 264 13.3
2020-Jan-22 09:30 264 13.3
2020-Jan-22 09:25 264 12.8
2020-Jan-22 09:20 264 12.2
2020-Jan-22 09:15 264 12.2
2020-Jan-22 09:10 264 11.7
2020-Jan-22 09:05 264 11.7
2020-Jan-22 09:00 264 11.7
2020-Jan-22 08:55 278 11.7
2020-Jan-22 08:50 277 11.7
2020-Jan-22 08:45 242 11.1
2020-Jan-22 08:40 250 11.1
2020-Jan-22 08:35 246 11.1
2020-Jan-22 08:30 252 11.1
2020-Jan-22 08:25 281 11.1
2020-Jan-22 08:20 295 10.6
2020-Jan-22 08:15 304 10.6
2020-Jan-22 08:10 343 10.6
2020-Jan-22 08:05 346 10.6
2020-Jan-22 08:00 346 10.0
2020-Jan-22 07:55 346 10.0
2020-Jan-22 07:50 346 10.0
2020-Jan-22 07:45 346 10.0
2020-Jan-22 07:40 346 10.0
2020-Jan-22 07:35 346 9.4
2020-Jan-22 07:30 345 9.4
2020-Jan-22 07:25 344 8.9
2020-Jan-22 07:20 341 8.9
2020-Jan-22 07:15 025 8.9
2020-Jan-22 07:10 025 8.9
2020-Jan-22 07:05 009 8.3
2020-Jan-22 07:00 360 8.3
2020-Jan-22 06:55 351 8.3
2020-Jan-22 06:50 005 7.8
2020-Jan-22 06:45 026 7.8
2020-Jan-22 06:40 360 7.8
2020-Jan-22 06:35 355 7.8
2020-Jan-22 06:30 014 7.8
2020-Jan-22 06:25 009 7.2
2020-Jan-22 06:20 348 0 gusting 6 7.2
2020-Jan-22 06:15 321 0 gusting 5 7.2
2020-Jan-22 06:10 355 7.2
2020-Jan-22 06:05 321 7.2
2020-Jan-22 06:00 360 7.2
2020-Jan-22 05:55 355 0 gusting 5 7.2
2020-Jan-22 05:50 327 7.2
2020-Jan-22 05:45 036 7.2
2020-Jan-22 05:40 360 7.2
2020-Jan-22 05:35 355 0 gusting 4 7.2
2020-Jan-22 05:30 360 7.2
2020-Jan-22 05:25 355 0 gusting 6 7.2
2020-Jan-22 05:20 360 7.2
2020-Jan-22 05:15 360 7.2
2020-Jan-22 05:10 005 7.2
2020-Jan-22 05:05 350 0 gusting 3 7.2
2020-Jan-22 05:00 009 0 gusting 6 7.2
2020-Jan-22 04:55 340 1 gusting 6 7.2
2020-Jan-22 04:50 360 1 gusting 6 7.2
2020-Jan-22 04:45 355 0 gusting 6 7.2
2020-Jan-22 04:40 360 7.2
2020-Jan-22 04:35 015 0 gusting 6 7.2
2020-Jan-22 04:30 360 1 gusting 8 7.2
2020-Jan-22 04:25 342 1 gusting 8 7.2
2020-Jan-22 04:20 350 0 gusting 6 7.2
2020-Jan-22 04:15 360 1 gusting 7 7.2
2020-Jan-22 04:10 360 1 gusting 7 7.2
2020-Jan-22 04:05 005 0 gusting 6 7.2
2020-Jan-22 04:00 011 1 gusting 7 7.2
2020-Jan-22 03:55 005 1 gusting 6 7.2
2020-Jan-22 03:50 005 0 gusting 6 7.2
2020-Jan-22 03:45 036 1 gusting 6 7.2
2020-Jan-22 03:40 346 0 gusting 6 7.2
2020-Jan-22 03:35 046 0 gusting 7 7.2
2020-Jan-22 03:30 355 1 gusting 7 7.2
2020-Jan-22 03:25 053 1 gusting 9 7.2
2020-Jan-22 03:20 045 2 gusting 9 7.2
2020-Jan-22 03:15 024 2 gusting 7 7.2
2020-Jan-22 03:10 360 3 gusting 9 7.2
2020-Jan-22 03:05 342 3 gusting 9 7.2
2020-Jan-22 03:00 027 2 gusting 6 7.2
2020-Jan-22 02:55 355 0 gusting 8 7.2
2020-Jan-22 02:50 009 1 gusting 10 7.2
2020-Jan-22 02:45 005 2 gusting 10 7.2
2020-Jan-22 02:40 355 0 gusting 9 7.2
2020-Jan-22 02:35 017 1 gusting 9 7.2
2020-Jan-22 02:30 027 1 gusting 11 7.2
2020-Jan-22 02:25 349 3 gusting 13 7.2
2020-Jan-22 02:20 340 5 gusting 9 7.2
2020-Jan-22 02:15 347 3 gusting 9 7.2
2020-Jan-22 02:10 016 4 gusting 9 7.2
2020-Jan-22 02:05 347 3 gusting 8 7.2
2020-Jan-22 02:00 011 1 gusting 8 7.2
2020-Jan-22 01:55 057 2 gusting 6 7.2
2020-Jan-22 01:50 022 0 gusting 6 7.2
2020-Jan-22 01:45 030 0 gusting 6 7.2
2020-Jan-22 01:40 033 0 gusting 3 7.2
2020-Jan-22 01:35 009 7.2
2020-Jan-22 01:30 049 0 gusting 4 7.2
2020-Jan-22 01:25 032 7.2
2020-Jan-22 01:20 005 7.2
2020-Jan-22 01:15 355 0 gusting 4 7.2
2020-Jan-22 01:10 348 0 gusting 4 7.2
2020-Jan-22 01:05 317 7.2
2020-Jan-22 01:00 024 7.2
2020-Jan-22 00:55 026 7.2
2020-Jan-22 00:50 350 7.2
2020-Jan-22 00:45 025 7.2
2020-Jan-22 00:40 025 0 gusting 6 7.8
2020-Jan-22 00:35 355 2 gusting 7 7.8
2020-Jan-22 00:30 360 1 gusting 7 7.2
2020-Jan-22 00:25 005 2 gusting 8 7.2
2020-Jan-22 00:20 360 1 gusting 8 7.8
2020-Jan-22 00:15 360 2 gusting 7 7.8
2020-Jan-22 00:10 005 1 gusting 7 7.8
2020-Jan-22 00:05 360 2 gusting 7 7.8
2020-Jan-22 00:00 360 2 gusting 6 7.8
2020-Jan-21 23:55 046 0 gusting 7 7.8
2020-Jan-21 23:50 005 1 gusting 7 7.8
2020-Jan-21 23:45 339 1 gusting 6 7.8
2020-Jan-21 23:40 360 1 gusting 6 7.8
2020-Jan-21 23:35 028 1 gusting 6 7.8
2020-Jan-21 23:30 051 7.8
2020-Jan-21 23:25 348 0 gusting 6 7.8
2020-Jan-21 23:15 005 1 gusting 7 7.8
2020-Jan-21 23:10 028 1 gusting 6 7.8
2020-Jan-21 23:05 052 0 gusting 6 7.8
2020-Jan-21 23:00 005 0 gusting 7 7.8
2020-Jan-21 22:55 026 0 gusting 7 7.8
2020-Jan-21 22:50 032 0 gusting 6 7.8
2020-Jan-21 22:45 005 1 gusting 6 7.8
2020-Jan-21 22:40 027 1 gusting 6 7.8
2020-Jan-21 22:36 013 1 gusting 6 7.8
2020-Jan-21 22:30 038 1 gusting 9 7.8
2020-Jan-21 22:25 360 1 gusting 9 7.8
2020-Jan-21 22:20 330 2 gusting 6 7.8
2020-Jan-21 22:15 028 0 gusting 6 7.8
2020-Jan-21 22:10 034 1 gusting 6 7.8
2020-Jan-21 22:05 030 1 gusting 6 7.8
2020-Jan-21 22:00 060 0 gusting 6 7.8
2020-Jan-21 21:55 045 1 gusting 6 7.8
2020-Jan-21 21:50 045 1 gusting 6 7.8
2020-Jan-21 21:45 360 0 gusting 5 8.3
2020-Jan-21 21:40 015 0 gusting 6 8.3
2020-Jan-21 21:35 005 0 gusting 6 8.3
2020-Jan-21 21:30 005 0 gusting 6 8.3
2020-Jan-21 21:25 346 1 gusting 6 8.3
2020-Jan-21 21:20 342 1 gusting 6 8.3
2020-Jan-21 21:15 030 1 gusting 6 8.3
2020-Jan-21 21:10 015 1 gusting 4 8.3
2020-Jan-21 21:05 360 0 gusting 5 8.3
2020-Jan-21 21:00 032 8.3
2020-Jan-21 20:55 009 8.3
2020-Jan-21 20:50 329 0 gusting 6 8.3
2020-Jan-21 20:45 010 2 gusting 7 8.3
2020-Jan-21 20:40 360 1 gusting 9 8.3
2020-Jan-21 20:35 005 2 gusting 10 8.3
2020-Jan-21 20:30 321 3 gusting 10 8.3
2020-Jan-21 20:25 360 3 gusting 9 8.3
2020-Jan-21 20:20 355 3 gusting 8 8.3
2020-Jan-21 20:15 009 3 gusting 8 8.3
2020-Jan-21 20:10 036 4 gusting 8 8.3
2020-Jan-21 20:05 360 4 gusting 8 8.3
2020-Jan-21 20:00 027 3 gusting 8 8.3
2020-Jan-21 19:55 046 2 gusting 7 8.3
2020-Jan-21 19:50 360 2 gusting 7 8.3
2020-Jan-21 19:45 360 2 gusting 7 8.3
2020-Jan-21 19:40 360 2 gusting 6 8.3
2020-Jan-21 19:35 021 0 gusting 8 8.3
2020-Jan-21 19:30 346 1 gusting 8 8.9
2020-Jan-21 19:25 009 1 gusting 7 8.9
2020-Jan-21 19:20 342 1 gusting 7 8.9
2020-Jan-21 19:15 005 0 gusting 4 8.9
2020-Jan-21 19:10 049 0 gusting 4 8.9
2020-Jan-21 19:05 015 0 gusting 5 8.9
2020-Jan-21 19:00 010 0 gusting 5 8.9
2020-Jan-21 18:55 355 0 gusting 5 8.9
2020-Jan-21 18:50 019 0 gusting 6 8.9
2020-Jan-21 18:45 019 1 gusting 6 8.9
2020-Jan-21 18:40 360 0 gusting 5 8.9
2020-Jan-21 18:35 360 0 gusting 4 8.9
2020-Jan-21 18:30 005 0 gusting 5 9.4
2020-Jan-21 18:25 338 0 gusting 6 9.4
2020-Jan-21 18:20 360 1 gusting 6 9.4
2020-Jan-21 18:15 020 9.4
2020-Jan-21 18:10 021 9.4
2020-Jan-21 18:05 355 0 gusting 5 9.4
2020-Jan-21 18:00 341 0 gusting 6 9.4
2020-Jan-21 17:55 005 9.4
2020-Jan-21 17:50 360 10.0
2020-Jan-21 17:45 018 10.0
2020-Jan-21 17:40 015 0 gusting 4 10.0
2020-Jan-21 17:35 005 10.0
2020-Jan-21 17:30 019 10.0
2020-Jan-21 17:25 045 10.0
2020-Jan-21 17:20 360 0 gusting 5 10.0
2020-Jan-21 17:15 028 0 gusting 6 10.0
2020-Jan-21 17:10 011 1 gusting 6 10.0
2020-Jan-21 17:05 024 10.0
2020-Jan-21 17:00 005 0 gusting 6 10.0
2020-Jan-21 16:55 026 0 gusting 6 10.6
2020-Jan-21 16:50 053 10.6
2020-Jan-21 16:45 346 10.6
2020-Jan-21 16:40 350 10.6
2020-Jan-21 16:35 360 10.6
2020-Jan-21 16:30 030 11.1
2020-Jan-21 16:20 047 11.1
2020-Jan-21 16:15 112 11.1
2020-Jan-21 16:10 112 11.7
2020-Jan-21 16:05 112 11.7
2020-Jan-21 16:00 112 12.2
2020-Jan-21 15:55 112 12.2
2020-Jan-21 15:50 112 12.2
2020-Jan-21 15:45 112 12.8
2020-Jan-21 15:40 112 12.8
2020-Jan-21 15:35 112 12.8
2020-Jan-21 15:30 112 12.8
2020-Jan-21 15:25 112 12.8
2020-Jan-21 15:20 112 13.3
2020-Jan-21 15:15 112 13.3
2020-Jan-21 15:10 139 13.3
2020-Jan-21 15:05 140 13.3
2020-Jan-21 15:00 140 13.3
2020-Jan-21 14:55 173 13.3
2020-Jan-21 14:50 171 13.3
2020-Jan-21 14:45 172 13.3
2020-Jan-21 14:40 169 13.3
2020-Jan-21 14:35 188 13.3
2020-Jan-21 14:30 188 13.3
2020-Jan-21 14:25 215 13.3
2020-Jan-21 14:20 192 13.3
2020-Jan-21 14:15 147 13.3
2020-Jan-21 14:10 176 13.3
2020-Jan-21 14:05 155 13.3
2020-Jan-21 14:00 146 13.3
2020-Jan-21 13:55 128 0 gusting 4 13.9
2020-Jan-21 13:50 186 13.9
2020-Jan-21 13:45 155 13.9
2020-Jan-21 13:40 188 13.9
2020-Jan-21 13:35 117 0 gusting 5 13.9
2020-Jan-21 13:30 207 1 gusting 5 13.9
2020-Jan-21 13:25 182 13.9
2020-Jan-21 13:20 184 13.9
2020-Jan-21 13:15 182 13.9
2020-Jan-21 13:10 193 0 gusting 4 13.9
2020-Jan-21 13:05 166 0 gusting 4 13.9
2020-Jan-21 13:00 103 13.9
2020-Jan-21 12:55 164 0 gusting 4 13.9
2020-Jan-21 12:50 167 14.4
2020-Jan-21 12:45 138 13.9
2020-Jan-21 12:40 169 13.9
2020-Jan-21 12:35 149 13.9
2020-Jan-21 12:30 169 14.4
2020-Jan-21 12:25 174 14.4
2020-Jan-21 12:20 109 14.4
2020-Jan-21 12:15 163 14.4
2020-Jan-21 12:10 120 13.9
2020-Jan-21 12:05 149 14.4
2020-Jan-21 12:00 126 15.0
2020-Jan-21 11:55 106 14.4
2020-Jan-21 11:50 106 14.4
2020-Jan-21 11:45 106 14.4
2020-Jan-21 11:40 105 13.9
2020-Jan-21 11:35 105 13.9
2020-Jan-21 11:30 126 13.9
2020-Jan-21 11:25 140 13.9
2020-Jan-21 11:20 116 13.9
2020-Jan-21 11:15 116 13.3
2020-Jan-21 11:10 115 13.3
2020-Jan-21 11:05 109 13.9
2020-Jan-21 11:00 162 13.3
2020-Jan-21 10:55 155 0 gusting 3 13.3
2020-Jan-21 10:50 128 13.3
2020-Jan-21 10:45 110 13.3
2020-Jan-21 10:40 128 13.3
2020-Jan-21 10:35 180 13.3
2020-Jan-21 10:30 173 13.3
2020-Jan-21 10:25 175 13.3
2020-Jan-21 10:20 168 12.8
2020-Jan-21 10:15 183 12.8
2020-Jan-21 10:10 185 12.8
2020-Jan-21 10:05 244 12.8
2020-Jan-21 10:00 242 12.8
2020-Jan-21 09:55 182 12.8
2020-Jan-21 09:50 201 12.8
2020-Jan-21 09:45 324 12.2
2020-Jan-21 09:40 324 11.7
2020-Jan-21 09:35 324 12.2
2020-Jan-21 09:30 325 12.2
2020-Jan-21 09:25 325 12.2
2020-Jan-21 09:20 325 11.7
2020-Jan-21 09:15 325 11.1
2020-Jan-21 09:10 325 11.1
2020-Jan-21 09:05 325 11.1
2020-Jan-21 09:00 325 11.1
2020-Jan-21 08:55 325 11.1
2020-Jan-21 08:50 325 10.6
2020-Jan-21 08:45 326 10.6
2020-Jan-21 08:40 328 10.6
2020-Jan-21 08:35 328 10.0
2020-Jan-21 08:30 328 10.0
2020-Jan-21 08:25 329 10.0
2020-Jan-21 08:20 329 10.0
2020-Jan-21 08:15 330 10.0
2020-Jan-21 08:10 330 10.0
2020-Jan-21 08:05 330 9.4
2020-Jan-21 08:00 330 9.4
2020-Jan-21 07:55 333 9.4
2020-Jan-21 07:50 038 9.4
2020-Jan-21 07:45 038 8.9
2020-Jan-21 07:40 038 9.4
2020-Jan-21 07:35 040 9.4
2020-Jan-21 07:30 040 10.0
2020-Jan-21 07:25 024 9.4
2020-Jan-21 07:20 042 9.4
2020-Jan-21 07:15 042 9.4
2020-Jan-21 07:10 047 9.4
2020-Jan-21 07:05 047 9.4
2020-Jan-21 07:00 047 9.4
2020-Jan-21 06:55 047 9.4
2020-Jan-21 06:50 047 8.9
2020-Jan-21 06:45 046 8.9
2020-Jan-21 06:40 042 8.9
2020-Jan-21 06:35 077 0 gusting 6 8.3
2020-Jan-21 06:30 044 1 gusting 5 8.3
2020-Jan-21 06:25 009 0 gusting 5 8.3
2020-Jan-21 06:20 020 8.3
2020-Jan-21 06:15 065 0 gusting 6 8.3
2020-Jan-21 06:10 057 0 gusting 3 8.3
2020-Jan-21 06:05 319 8.3
2020-Jan-21 06:00 319 8.3
2020-Jan-21 05:55 313 8.3
2020-Jan-21 05:50 018 0 gusting 7 8.3
2020-Jan-21 05:45 348 2 gusting 9 8.9
2020-Jan-21 05:40 019 8.9
2020-Jan-21 05:35 005 1 gusting 10 8.9
2020-Jan-21 05:30 028 1 gusting 8 8.9
2020-Jan-21 05:25 355 2 gusting 12 8.9
2020-Jan-21 05:20 046 3 gusting 12 8.9
2020-Jan-21 05:15 035 2 gusting 8 8.9
2020-Jan-21 05:10 005 0 gusting 8 8.9
2020-Jan-21 05:05 039 0 gusting 6 8.9
2020-Jan-21 05:00 033 8.9
2020-Jan-21 04:55 360 0 gusting 6 8.9
2020-Jan-21 04:50 355 1 gusting 10 8.9
2020-Jan-21 04:45 049 2 gusting 11 8.9
2020-Jan-21 04:40 025 3 gusting 12 8.9
2020-Jan-21 04:35 042 1 gusting 12 8.9
2020-Jan-21 04:30 015 2 gusting 12 8.9
2020-Jan-21 04:25 258 1 gusting 12 8.9
2020-Jan-21 04:20 005 6 gusting 12 8.9
2020-Jan-21 04:15 326 1 gusting 10 8.9
2020-Jan-21 04:10 328 1 gusting 6 8.9
2020-Jan-21 04:05 009 1 gusting 8 8.9
2020-Jan-21 04:00 350 2 gusting 9 8.9
2020-Jan-21 03:55 038 3 gusting 10 8.9
2020-Jan-21 03:50 046 3 gusting 10 8.9
2020-Jan-21 03:45 024 9.4
2020-Jan-21 03:40 005 1 gusting 11 9.4
2020-Jan-21 03:35 055 2 gusting 12 9.4
2020-Jan-21 03:30 360 3 gusting 12 9.4
2020-Jan-21 03:25 040 0 gusting 10 9.4
2020-Jan-21 03:20 019 1 gusting 10 9.4
2020-Jan-21 03:15 019 2 gusting 12 9.4
2020-Jan-21 03:10 360 4 gusting 12 9.4
2020-Jan-21 03:05 022 9.4
2020-Jan-21 03:00 005 2 gusting 10 9.4
2020-Jan-21 02:55 355 3 gusting 10 9.4
2020-Jan-21 02:50 360 1 gusting 10 9.4
2020-Jan-21 02:45 005 3 gusting 10 9.4
2020-Jan-21 02:40 063 4 gusting 10 9.4
2020-Jan-21 02:35 027 2 gusting 11 9.4
2020-Jan-21 02:30 044 3 gusting 13 9.4
2020-Jan-21 02:25 360 3 gusting 13 9.4
2020-Jan-21 02:20 336 5 gusting 13 9.4
2020-Jan-21 02:15 360 2 gusting 12 9.4
2020-Jan-21 02:10 355 6 gusting 12 9.4
2020-Jan-21 02:05 009 3 gusting 13 9.4
2020-Jan-21 02:00 028 3 gusting 15 9.4
2020-Jan-21 01:55 351 7 gusting 15 9.4
2020-Jan-21 01:50 030 6 gusting 15 9.4
2020-Jan-21 01:45 342 6 gusting 15 9.4
2020-Jan-21 01:40 009 5 gusting 13 9.4
2020-Jan-21 01:35 244 4 gusting 13 9.4
2020-Jan-21 01:30 360 6 gusting 13 9.4
2020-Jan-21 01:25 360 4 gusting 13 9.4
2020-Jan-21 01:20 011 5 gusting 13 9.4
2020-Jan-21 01:15 031 4 gusting 11 9.4
2020-Jan-21 01:10 344 5 gusting 13 9.4
2020-Jan-21 01:05 319 3 gusting 13 9.4
2020-Jan-21 01:00 039 6 gusting 13 9.4
2020-Jan-21 00:55 083 4 gusting 12 9.4
2020-Jan-21 00:50 360 4 gusting 14 9.4
2020-Jan-21 00:45 005 6 gusting 14 9.4
2020-Jan-21 00:40 044 5 gusting 13 10.0
2020-Jan-21 00:35 026 6 gusting 13 10.0
2020-Jan-21 00:30 021 6 gusting 13 10.0
2020-Jan-21 00:25 015 5 gusting 16 10.0
2020-Jan-21 00:20 022 4 gusting 16 10.0
2020-Jan-21 00:15 033 5 gusting 16 10.0
2020-Jan-21 00:10 021 8 gusting 16 10.0
2020-Jan-21 00:05 022 5 gusting 14 10.0
2020-Jan-21 00:00 063 7 gusting 17 10.0
2020-Jan-20 23:55 020 8 gusting 17 10.0
2020-Jan-20 23:50 023 7 gusting 15 10.0
2020-Jan-20 23:45 037 6 gusting 16 10.0
2020-Jan-20 23:40 030 7 gusting 17 10.0
2020-Jan-20 23:35 052 8 gusting 17 10.0
2020-Jan-20 23:30 026 6 gusting 21 10.0
2020-Jan-20 23:25 338 7 gusting 21 10.0
2020-Jan-20 23:20 019 6 gusting 16 10.0
2020-Jan-20 23:15 044 4 gusting 19 10.0
2020-Jan-20 23:10 348 8 gusting 18 10.0
2020-Jan-20 23:05 347 6 gusting 16 10.0
2020-Jan-20 23:00 323 6 gusting 16 10.0
2020-Jan-20 22:55 338 6 gusting 18 10.0
2020-Jan-20 22:50 005 4 gusting 18 10.0
2020-Jan-20 22:45 033 6 gusting 15 10.0
2020-Jan-20 22:40 029 6 gusting 15 10.0
2020-Jan-20 22:35 053 6 gusting 14 10.0
2020-Jan-20 22:30 035 2 gusting 13 10.0
2020-Jan-20 22:25 034 5 gusting 13 10.0
2020-Jan-20 22:20 355 3 gusting 14 10.0
2020-Jan-20 22:15 017 4 gusting 14 10.0
2020-Jan-20 22:10 028 4 gusting 12 10.0
2020-Jan-20 22:05 033 6 gusting 11 10.0
2020-Jan-20 22:00 027 3 gusting 11 10.0
2020-Jan-20 21:55 063 6 gusting 11 10.0
2020-Jan-20 21:50 022 0 gusting 7 10.0
2020-Jan-20 21:45 036 0 gusting 6 10.0
2020-Jan-20 21:40 313 0 gusting 8 10.6
2020-Jan-20 21:35 355 0 gusting 11 10.6
2020-Jan-20 21:30 340 2 gusting 11 10.6
2020-Jan-20 21:25 327 3 gusting 9 10.6
2020-Jan-20 21:20 327 3 gusting 8 10.6
2020-Jan-20 21:15 360 1 gusting 11 10.6
2020-Jan-20 21:10 319 1 gusting 11 10.6
2020-Jan-20 21:05 025 2 gusting 12 10.6
2020-Jan-20 21:00 360 4 gusting 12 10.6
2020-Jan-20 20:55 332 3 gusting 9 10.0
2020-Jan-20 20:50 327 2 gusting 10 10.0
2020-Jan-20 20:45 327 1 gusting 10 10.6
2020-Jan-20 20:40 024 4 gusting 11 10.6
2020-Jan-20 20:35 005 3 gusting 11 10.6
2020-Jan-20 20:30 015 3 gusting 11 10.6
2020-Jan-20 20:25 360 4 gusting 9 10.6
2020-Jan-20 20:20 355 2 gusting 9 10.6
2020-Jan-20 20:15 338 2 gusting 12 10.6
2020-Jan-20 20:10 319 3 gusting 12 10.6
2020-Jan-20 20:05 327 2 gusting 6 10.6
2020-Jan-20 20:00 023 0 gusting 5 10.6
2020-Jan-20 19:55 338 0 gusting 7 11.1
2020-Jan-20 19:50 327 1 gusting 6 11.1
2020-Jan-20 19:45 338 11.1
2020-Jan-20 19:40 306 11.1
2020-Jan-20 19:35 323 0 gusting 5 11.1
2020-Jan-20 19:30 355 11.1
2020-Jan-20 19:25 355 1 gusting 8 11.1
2020-Jan-20 19:20 010 11.1
2020-Jan-20 19:15 342 2 gusting 7 11.1
2020-Jan-20 19:10 073 2 gusting 6 11.1
2020-Jan-20 19:05 355 1 gusting 6 11.1
2020-Jan-20 19:00 336 0 gusting 8 11.1
2020-Jan-20 18:55 026 2 gusting 8 11.1
2020-Jan-20 18:50 346 0 gusting 5 11.1
2020-Jan-20 18:45 047 11.1
2020-Jan-20 18:40 036 1 gusting 6 11.1
2020-Jan-20 18:35 026 11.7
2020-Jan-20 18:30 005 0 gusting 6 11.7
2020-Jan-20 18:25 336 2 gusting 8 11.7
2020-Jan-20 18:20 340 3 gusting 8 11.7
2020-Jan-20 18:15 321 2 gusting 7 11.7
2020-Jan-20 18:10 005 0 gusting 8 11.7
2020-Jan-20 18:05 329 2 gusting 8 11.7
2020-Jan-20 18:00 360 2 gusting 10 11.7
2020-Jan-20 17:55 341 1 gusting 10 11.7
2020-Jan-20 17:50 342 4 gusting 10 11.7
2020-Jan-20 17:45 350 4 gusting 11 11.7
2020-Jan-20 17:40 005 3 gusting 11 11.7
2020-Jan-20 17:35 020 3 gusting 8 11.7
2020-Jan-20 17:30 341 4 gusting 8 11.7
2020-Jan-20 17:25 009 2 gusting 6 11.7
2020-Jan-20 17:20 343 0 gusting 6 11.7
2020-Jan-20 17:15 355 1 gusting 6 11.7
2020-Jan-20 17:10 016 11.7
2020-Jan-20 17:05 025 0 gusting 4 11.7
2020-Jan-20 17:00 355 12.2
2020-Jan-20 16:55 005 12.2
2020-Jan-20 16:50 360 0 gusting 2 12.2
2020-Jan-20 16:45 017 12.2
2020-Jan-20 16:40 005 12.2
2020-Jan-20 16:35 005 12.8
2020-Jan-20 16:30 034 12.8
2020-Jan-20 16:20 034 12.8
2020-Jan-20 16:15 040 12.8
2020-Jan-20 16:10 064 12.8
2020-Jan-20 16:05 065 12.8
2020-Jan-20 16:00 073 12.8
2020-Jan-20 15:55 074 12.8
2020-Jan-20 15:50 074 13.3
2020-Jan-20 15:45 078 13.3
2020-Jan-20 15:40 096 13.3
2020-Jan-20 15:35 096 13.3
2020-Jan-20 15:30 132 13.3
2020-Jan-20 15:25 167 13.3
2020-Jan-20 15:20 167 13.9
2020-Jan-20 15:15 133 13.9
2020-Jan-20 15:10 136 13.9
2020-Jan-20 15:05 136 13.9
2020-Jan-20 15:00 128 13.9